Temp_Advection
nan nan nan nan nan nan nan nan nan nan nan nan nan nan nan nan nan nan nan nan nan nan nan nan nan nan nan nan nan nan nan nan nan nan nan nan nan nan nan nan nan nan nan
nan 0 1 1 0 0 0 1 0 0 0 1 0 0 0 0 0 0 -0 -0 0 0 -0 -0 -0 -0 -0 -0 -0 -0 -0 -0 0 -0 -0 -0 -0 0 0 -0 -0 -0 nan
nan 1 1 0 0 1 1 0 0 1 1 1 0 0 0 0 0 0 -0 -0 -0 0 -0 -0 -0 -0 -0 -0 -0 -0 -0 -0 -0 -0 -0 -0 -0 -0 0 -0 -0 -0 nan
nan 1 1 1 1 1 1 0 1 1 1 0 0 0 0 0 0 0 0 -0 -0 0 0 0 -0 -0 -0 -0 -0 -0 -0 -0 -0 -0 -0 -0 -0 -0 -0 -0 -0 -0 nan
nan 1 1 1 1 1 0 1 1 1 1 0 0 0 0 0 0 0 0 -0 -0 -0 -0 0 0 0 0 -0 -0 -0 -0 -0 -0 0 0 -0 -0 -0 -0 -0 -0 -0 nan
nan 1 2 1 1 1 0 1 1 1 1 1 0 0 0 0 0 -0 -0 0 0 0 0 0 0 0 0 0 -0 -0 -0 -0 -0 -0 -0 -0 -0 -0 -0 -0 -0 -0 nan
nan 1 1 1 1 1 1 1 1 1 0 -0 -0 -0 0 0 -0 -0 0 0 0 0 0 0 0 0 0 -0 -0 -0 -0 -0 -0 -0 -0 -0 -0 -0 -0 -0 -0 -1 nan
nan 1 1 1 1 1 1 1 1 0 -0 -0 0 0 0 -0 -0 0 0 0 0 0 0 0 0 0 0 0 0 -0 -0 -0 -0 -0 -0 -0 -0 -0 -0 -0 -0 0 nan
nan 1 1 1 1 1 1 1 1 0 -0 0 0 0 -0 -0 -0 0 0 0 0 0 0 0 0 0 -0 -0 0 0 0 0 -0 -0 -0 -0 -0 -0 -0 -0 -0 -0 nan
nan 1 1 1 1 1 1 1 1 0 1 1 0 0 0 0 0 0 0 0 0 0 0 0 0 0 -0 0 0 0 0 0 0 0 -0 -0 -0 -0 -1 -0 -1 -1 nan
nan 1 1 1 1 1 1 1 0 1 1 -0 0 0 0 0 0 0 0 0 0 0 0 -0 0 0 0 0 0 0 0 0 0 0 0 -0 -0 -0 -0 -0 -1 -1 nan
nan 1 1 1 0 0 0 0 0 0 -1 -0 0 0 0 0 0 0 0 0 0 0 -0 0 0 0 0 0 0 0 0 0 0 0 0 0 0 -0 -0 -0 -0 -0 nan
nan 1 0 0 0 0 1 1 1 -1 -1 -0 0 -0 0 -0 -0 0 0 0 0 -0 -0 0 0 0 0 0 0 0 0 0 0 0 0 0 0 0 -0 -0 -0 -0 nan
nan 0 0 1 0 1 1 1 0 -1 -1 -0 -0 -0 -0 -0 -0 -0 0 0 -0 -0 0 0 0 0 0 0 0 0 0 0 0 0 1 1 0 0 -0 -0 -0 -0 nan
nan 1 1 1 1 1 1 0 -0 -1 -0 0 0 0 0 -1 -0 0 0 0 0 0 0 0 -0 0 0 0 0 0 0 0 0 0 1 0 0 0 0 -0 -0 -0 nan
nan 1 1 1 1 1 0 0 -1 -1 0 0 0 0 0 0 0 0 1 0 0 0 -0 -0 0 0 1 1 1 1 1 0 0 0 0 0 0 0 0 0 0 0 nan
nan 1 1 1 1 1 0 0 -1 -0 0 0 0 0 0 0 0 0 1 1 0 -0 -1 -0 0 1 1 1 1 1 0 1 1 0 0 0 0 0 0 0 0 -0 nan
nan 1 0 1 1 0 0 0 0 0 0 1 0 1 1 1 0 1 1 1 0 -1 -1 -0 1 1 1 1 1 1 1 0 0 0 0 0 0 0 0 0 0 0 nan
nan 0 0 1 1 1 1 1 0 0 1 1 1 1 1 1 1 1 1 0 -0 -0 -1 -0 1 1 1 1 1 1 0 0 0 0 0 0 0 0 0 0 0 0 nan
nan 0 0 0 0 0 0 0 -0 0 0 1 1 1 1 1 0 1 1 -0 -0 -0 -0 0 1 1 1 1 1 1 0 0 0 0 0 0 1 0 0 0 0 0 nan
nan 0 0 0 0 0 0 0 0 0 1 0 0 0 0 0 0 0 0 0 0 0 0 0 1 1 1 1 1 0 0 0 0 0 0 1 0 0 0 0 0 0 nan
nan 0 0 0 0 1 1 0 0 0 0 0 0 0 0 0 0 0 0 0 0 0 1 1 0 0 1 1 0 0 0 0 0 1 0 0 1 1 1 0 0 0 nan
nan 0 0 0 0 0 0 0 0 0 0 0 0 0 0 0 0 0 0 0 1 0 0 0 0 0 0 0 -0 -0 0 0 1 1 1 1 1 1 0 0 0 0 nan
nan 0 0 0 0 0 0 0 0 0 0 0 0 0 0 0 0 0 0 0 0 0 0 0 0 0 0 0 0 0 0 1 1 1 1 1 1 1 1 1 1 1 nan
nan 0 0 0 0 0 0 0 0 0 0 0 0 0 0 0 0 0 0 0 0 0 0 0 0 0 -0 0 0 0 0 1 1 1 1 1 1 1 1 1 0 0 nan
nan nan nan nan nan nan nan nan nan nan nan nan nan nan nan nan nan nan nan nan nan nan nan nan nan nan nan nan nan nan nan nan nan nan nan nan nan nan nan nan nan nan nan
Wind_Speed
25 26 25 26 26 23 22 22 20 16 13 12 12 13 13 12 11 10 10 10 9 10 11 12 10 8 8 7 5 6 8 7 8 8 5 11 13 10 5 8 12 12 16
28 27 27 26 24 23 22 21 19 17 16 15 14 14 14 14 14 13 12 11 9 9 10 9 9 8 7 7 6 7 8 8 6 5 5 11 12 11 4 4 5 8 9
31 28 29 28 26 25 23 21 20 18 17 17 16 16 15 15 15 14 11 11 10 8 8 8 7 7 6 3 4 6 7 6 6 3 5 8 10 7 3 2 4 2 7
33 32 30 29 26 25 24 22 21 20 19 18 18 18 16 16 15 14 13 12 10 8 8 8 8 7 6 4 5 5 6 4 7 5 5 6 7 8 5 3 2 4 6
36 34 30 29 25 25 24 22 22 21 21 20 20 19 18 18 17 15 14 13 10 10 9 8 8 7 6 5 5 5 4 3 4 2 2 4 5 7 7 8 6 5 6
38 35 31 30 28 27 25 24 24 23 23 23 22 21 21 20 19 17 14 12 11 10 9 8 7 6 5 4 5 5 3 2 1 2 3 5 6 8 7 8 8 7 10
38 36 33 30 29 28 25 26 26 25 25 25 23 22 21 19 18 17 13 12 11 9 7 7 6 5 4 2 2 2 1 3 3 5 5 6 7 8 9 8 9 9 10
37 35 32 30 30 29 28 27 28 27 25 25 24 22 21 20 19 16 14 13 13 11 9 6 6 4 2 1 1 1 2 2 4 5 6 5 6 7 9 11 11 10 9
34 34 34 33 32 31 30 29 28 28 26 24 24 22 22 21 20 17 16 15 13 11 10 8 7 6 4 3 3 3 1 2 4 4 5 6 5 6 7 9 8 9 9
34 34 33 33 33 31 29 28 27 25 25 23 23 23 22 21 21 19 18 17 15 13 12 10 9 8 6 5 4 5 4 4 5 4 4 5 6 7 8 9 9 10 10
30 33 32 33 33 31 28 28 28 27 22 22 22 21 21 21 20 19 18 18 17 15 13 12 9 9 7 6 6 6 7 7 6 6 7 7 9 10 9 8 9 10 11
27 32 32 32 35 32 28 30 28 22 24 23 21 21 20 19 17 19 19 18 17 16 15 13 10 9 9 9 8 9 9 9 9 7 6 8 9 10 8 8 10 9 7
27 30 32 34 35 31 29 27 27 27 29 26 27 25 24 23 21 20 20 20 20 20 17 14 12 12 11 12 11 11 12 11 10 9 9 10 9 9 8 9 9 8 5
27 32 31 32 30 27 25 26 28 30 31 30 31 28 27 25 23 23 23 22 22 21 19 18 15 15 15 14 14 13 13 12 11 12 11 11 9 8 9 11 10 9 8
25 27 28 29 28 27 27 25 27 31 31 32 32 30 28 28 26 21 20 22 22 20 20 21 19 17 17 17 15 13 11 10 8 9 11 10 10 11 12 13 10 7 8
27 29 27 28 27 27 27 29 30 31 29 30 28 29 28 26 22 20 21 21 21 23 24 22 20 20 20 17 16 15 13 12 10 10 11 10 11 13 13 13 10 9 9
29 30 29 28 29 32 32 29 32 32 32 31 31 28 28 27 26 24 23 23 22 24 25 25 24 23 21 19 17 15 15 14 13 13 13 12 14 19 15 13 12 10 10
23 27 28 28 29 31 34 32 30 33 33 33 33 33 32 31 29 27 25 24 27 29 29 27 26 24 22 20 18 18 18 17 17 17 16 15 15 13 13 14 13 12 14
19 24 25 25 26 28 29 31 31 32 32 32 32 34 35 34 33 31 30 33 34 33 33 31 28 25 24 23 22 21 20 20 19 18 18 17 17 16 17 16 14 14 16
16 19 20 20 20 23 22 22 24 25 26 26 27 29 27 30 37 37 36 38 39 38 37 35 31 27 25 24 23 22 22 21 21 20 19 18 17 16 18 17 16 17 20
14 17 18 18 18 18 19 21 22 22 24 25 24 23 23 23 26 28 33 38 41 41 39 36 33 28 25 23 22 23 23 22 21 20 19 18 17 19 18 18 19 22 25
14 17 18 19 19 19 20 22 23 24 24 24 24 23 24 24 25 25 26 26 27 28 29 31 31 29 26 24 24 25 25 26 24 21 20 19 18 19 20 22 25 26 27
8 11 13 13 15 18 17 19 20 20 21 21 23 24 26 28 28 27 26 25 24 22 20 19 19 21 21 23 24 25 26 27 24 22 21 20 21 22 24 27 28 27 30
8 8 9 9 10 11 12 15 19 21 22 23 23 25 26 27 27 27 26 24 22 21 19 20 22 22 22 22 23 24 27 25 23 25 24 22 21 25 29 28 27 29 31
8 10 10 10 12 15 15 16 16 18 20 21 22 23 24 23 22 24 24 23 22 22 23 23 24 25 26 24 23 25 27 24 25 27 25 22 21 24 27 29 29 30 31
6 8 11 12 12 13 14 15 15 15 15 16 16 17 17 19 20 21 22 23 23 23 22 22 22 22 22 22 25 27 26 25 27 25 24 23 23 25 26 27 28 29 29
Wind_Direction
218 210 207 203 207 211 213 212 214 213 207 202 186 175 169 169 162 156 157 149 150 141 138 137 136 127 140 128 132 116 115 101 124 76 349 323 347 4 34 64 27 10 350
217 218 214 210 213 214 211 208 210 210 206 197 186 180 174 171 168 166 169 166 172 158 149 159 155 156 157 157 155 140 131 107 124 86 307 317 347 357 342 46 76 2 8
214 219 217 214 213 213 210 210 209 205 200 193 190 186 182 179 179 180 181 182 185 163 151 161 158 170 187 159 144 154 164 153 155 164 267 314 344 356 6 27 156 43 7
212 215 218 217 216 213 210 207 207 203 201 195 191 189 187 183 181 183 184 188 185 170 157 158 157 159 167 143 127 146 175 180 190 212 270 322 358 15 15 45 127 357 24
213 215 220 219 218 215 211 206 205 202 200 199 195 192 190 187 185 186 188 190 184 178 169 164 162 160 157 148 129 127 134 167 210 252 301 12 15 24 23 19 21 7 18
215 217 218 216 215 214 212 207 205 202 200 202 201 200 196 192 193 199 201 195 194 184 178 172 164 156 151 148 140 127 120 105 63 35 30 23 23 23 21 16 7 13 10
215 214 217 216 214 214 212 207 205 205 205 207 209 204 200 197 201 202 200 202 202 204 195 175 171 162 155 145 117 120 60 46 34 15 12 8 12 11 14 16 15 358 358
216 219 220 217 215 214 213 210 208 209 211 212 209 204 201 201 205 205 197 198 201 202 204 191 184 184 180 220 323 18 4 353 357 353 348 353 357 356 4 5 4 359 351
218 218 218 214 215 215 215 213 210 211 214 213 211 209 204 203 203 203 200 199 200 202 208 203 194 203 217 245 284 294 292 319 329 325 331 339 337 351 5 355 340 350 358
212 210 211 212 215 214 215 211 210 212 219 211 213 209 206 205 205 205 204 203 202 203 209 211 205 214 232 258 281 305 305 314 320 314 306 317 355 352 348 344 350 2 9
216 214 214 213 209 212 213 208 204 212 212 214 211 211 206 206 208 209 212 215 217 213 213 218 220 222 245 274 294 293 297 299 296 299 313 324 332 337 342 350 7 12 17
216 212 208 203 202 207 207 208 211 194 209 212 208 212 212 209 209 214 217 216 224 232 229 227 230 237 260 279 287 287 279 282 278 278 279 287 297 319 332 340 358 5 3
212 208 209 208 211 216 216 218 197 199 210 209 209 217 218 221 221 217 219 220 221 228 244 247 253 259 268 279 280 280 276 270 271 267 264 272 286 303 313 315 331 323 341
214 213 216 214 214 218 216 208 199 202 209 213 215 221 229 230 230 223 220 219 226 235 242 247 253 259 264 269 277 276 270 270 268 261 260 264 271 284 293 304 315 319 324
221 223 221 217 216 217 213 207 205 212 218 217 223 229 233 236 238 237 236 235 240 242 244 248 251 257 261 266 265 263 264 268 274 263 256 258 261 267 280 293 306 298 311
217 220 223 221 216 213 203 212 210 221 223 226 233 239 247 256 255 253 252 245 242 241 243 247 250 254 257 258 260 263 265 274 279 279 283 274 272 270 275 284 292 288 302
219 221 223 223 217 209 208 207 212 213 220 224 231 236 241 251 254 251 251 248 246 243 245 248 249 251 255 257 261 266 272 274 274 274 276 276 279 282 266 275 290 287 301
224 225 226 226 221 216 217 216 221 225 227 228 231 236 242 245 248 251 250 248 247 250 250 251 254 256 257 257 256 256 262 261 264 268 275 276 278 264 260 271 283 282 294
228 223 223 226 226 224 223 226 229 234 237 240 241 243 245 248 250 250 249 248 250 253 258 260 260 260 258 256 254 255 255 259 263 265 267 271 270 266 268 278 273 277 293
231 226 225 222 220 221 226 230 236 240 242 243 244 246 246 248 247 245 243 247 251 254 258 262 263 260 258 253 251 250 251 254 259 264 269 276 274 273 271 264 264 277 286
225 216 221 220 219 222 230 237 242 245 250 254 257 259 258 253 256 256 257 255 258 260 261 263 265 262 258 254 249 246 247 251 256 263 266 270 266 258 260 262 269 274 281
224 221 219 222 226 230 237 244 251 253 254 256 259 262 264 261 261 262 265 267 269 269 267 264 263 264 263 259 254 250 251 251 253 257 261 264 266 264 262 262 266 274 280
208 225 231 237 243 246 244 249 252 251 254 257 258 256 255 256 260 263 267 271 274 272 268 261 257 256 253 253 253 253 256 256 260 260 260 261 262 261 263 264 267 270 282
202 214 236 245 246 247 251 251 254 256 259 262 265 264 262 263 263 264 268 273 272 271 271 268 264 267 263 260 260 261 260 252 262 257 255 257 263 265 265 256 266 280 287
209 218 230 249 259 256 257 262 266 266 262 264 265 267 263 262 266 267 269 271 272 270 268 268 267 267 267 261 265 266 252 260 259 254 254 255 257 255 265 272 275 281 287
245 248 257 264 261 261 261 264 268 269 267 265 263 264 263 261 259 260 261 263 265 266 264 264 264 262 261 259 262 257 254 258 249 249 249 253 262 270 272 276 282 286 289
Height
1473 1476 1480 1479 1481 1483 1484 1486 1487 1489 1490 1492 1493 1495 1496 1498 1499 1502 1505 1504 1503 1504 1505 1506 1506 1508 1509 1509 1509 1509 1510 1510 1511 1512 1510 1507 1506 1505 1503 1502 1500 1498 1496
1466 1472 1475 1476 1478 1481 1482 1483 1485 1486 1488 1490 1491 1493 1495 1497 1499 1501 1503 1503 1504 1504 1504 1505 1507 1508 1508 1508 1509 1509 1509 1509 1510 1510 1507 1505 1505 1504 1503 1502 1500 1498 1497
1460 1465 1470 1471 1471 1476 1478 1481 1482 1483 1485 1487 1489 1492 1493 1495 1498 1500 1501 1502 1503 1503 1504 1506 1507 1507 1508 1509 1509 1509 1508 1508 1508 1507 1505 1505 1505 1503 1502 1501 1499 1499 1497
1449 1458 1463 1467 1470 1473 1475 1475 1479 1481 1482 1485 1487 1490 1492 1495 1497 1498 1500 1501 1502 1503 1504 1505 1506 1507 1508 1508 1508 1508 1508 1508 1507 1506 1505 1505 1504 1502 1501 1501 1498 1497 1496
1446 1451 1456 1463 1466 1470 1473 1473 1476 1478 1480 1483 1485 1488 1491 1493 1494 1496 1498 1499 1500 1502 1503 1505 1506 1506 1507 1507 1507 1507 1507 1506 1506 1506 1505 1504 1503 1502 1500 1499 1497 1496 1494
1442 1446 1452 1458 1462 1466 1468 1470 1473 1475 1477 1480 1483 1486 1488 1491 1493 1495 1496 1497 1499 1501 1502 1503 1505 1505 1506 1506 1506 1506 1506 1505 1505 1504 1503 1503 1502 1501 1500 1498 1496 1494 1492
1439 1443 1448 1453 1457 1461 1465 1467 1469 1472 1475 1478 1481 1484 1487 1489 1491 1493 1495 1497 1499 1500 1501 1503 1503 1504 1505 1505 1505 1505 1504 1504 1503 1502 1502 1501 1500 1499 1498 1497 1495 1493 1491
1436 1440 1444 1449 1453 1457 1461 1464 1467 1469 1472 1474 1478 1482 1485 1487 1489 1491 1494 1495 1497 1499 1500 1501 1502 1502 1503 1504 1504 1504 1503 1502 1502 1501 1500 1499 1498 1498 1496 1495 1493 1491 1490
1432 1435 1439 1444 1448 1453 1457 1460 1463 1466 1469 1472 1476 1479 1482 1485 1487 1489 1492 1493 1495 1497 1498 1499 1501 1501 1502 1502 1501 1502 1501 1501 1500 1500 1498 1497 1497 1496 1495 1494 1492 1491 1488
1428 1432 1436 1439 1442 1447 1452 1456 1460 1464 1467 1469 1473 1477 1480 1482 1484 1486 1488 1490 1492 1494 1495 1497 1498 1499 1500 1499 1499 1499 1499 1499 1498 1497 1497 1496 1495 1495 1494 1492 1490 1489 1487
1426 1430 1433 1436 1439 1443 1447 1452 1456 1460 1463 1468 1471 1473 1477 1480 1482 1484 1486 1488 1490 1491 1492 1494 1495 1496 1497 1497 1496 1496 1496 1495 1495 1494 1493 1492 1492 1492 1491 1490 1489 1487 1486
1423 1426 1429 1433 1436 1440 1444 1447 1452 1456 1461 1465 1468 1470 1473 1477 1479 1482 1484 1485 1486 1487 1488 1491 1492 1493 1494 1494 1493 1493 1493 1493 1492 1492 1491 1490 1490 1490 1489 1487 1487 1486 1484
1420 1424 1426 1429 1433 1437 1440 1444 1448 1453 1458 1462 1465 1467 1470 1472 1476 1478 1481 1483 1484 1485 1486 1488 1488 1489 1490 1490 1490 1490 1490 1490 1489 1489 1488 1487 1487 1487 1486 1485 1485 1484 1483
1417 1420 1423 1427 1431 1435 1438 1441 1445 1450 1455 1458 1461 1464 1466 1469 1472 1474 1477 1479 1480 1482 1483 1484 1485 1486 1486 1486 1486 1486 1486 1485 1485 1485 1485 1484 1484 1484 1483 1482 1482 1481 1479
1414 1418 1421 1425 1428 1432 1435 1439 1442 1448 1452 1454 1457 1461 1463 1464 1467 1471 1474 1475 1477 1478 1479 1479 1480 1481 1481 1481 1482 1482 1481 1481 1481 1480 1480 1480 1480 1480 1480 1479 1479 1477 1476
1411 1414 1417 1420 1424 1428 1432 1435 1440 1445 1448 1452 1455 1457 1459 1462 1465 1468 1470 1472 1472 1472 1472 1473 1474 1474 1475 1476 1476 1476 1476 1475 1476 1476 1475 1476 1476 1476 1476 1476 1475 1474 1473
1407 1410 1413 1416 1420 1424 1428 1431 1435 1440 1443 1447 1450 1452 1455 1457 1460 1462 1464 1465 1466 1466 1465 1466 1467 1468 1469 1470 1470 1469 1469 1470 1470 1470 1471 1472 1472 1471 1471 1471 1471 1470 1470
1403 1405 1409 1412 1416 1420 1424 1428 1432 1436 1438 1441 1444 1447 1449 1451 1454 1456 1458 1460 1458 1456 1457 1459 1460 1461 1462 1463 1463 1464 1465 1465 1466 1466 1466 1466 1467 1466 1466 1467 1467 1466 1465
1399 1401 1404 1408 1412 1417 1421 1424 1428 1432 1434 1437 1440 1441 1443 1444 1447 1449 1450 1449 1449 1450 1450 1451 1453 1455 1456 1457 1457 1458 1459 1459 1460 1461 1461 1462 1462 1461 1461 1461 1461 1461 1460
1397 1400 1403 1405 1409 1414 1417 1420 1423 1425 1427 1429 1431 1432 1436 1438 1437 1439 1440 1440 1440 1441 1442 1443 1445 1447 1448 1450 1451 1452 1453 1454 1454 1455 1455 1455 1455 1455 1455 1456 1456 1455 1454
1395 1398 1401 1405 1408 1410 1414 1416 1418 1420 1421 1423 1424 1427 1429 1430 1430 1430 1431 1432 1432 1433 1434 1435 1437 1439 1441 1442 1443 1445 1446 1447 1448 1449 1449 1450 1450 1449 1450 1450 1450 1449 1448
1395 1397 1400 1403 1406 1409 1411 1413 1415 1416 1417 1418 1419 1420 1421 1422 1423 1424 1424 1425 1426 1426 1426 1427 1429 1430 1432 1434 1435 1437 1438 1439 1441 1442 1443 1443 1443 1443 1443 1443 1443 1442 1441
1395 1397 1400 1402 1404 1406 1408 1409 1410 1411 1412 1413 1414 1415 1415 1415 1415 1416 1417 1418 1419 1419 1420 1420 1421 1423 1425 1426 1427 1429 1430 1431 1433 1434 1435 1436 1436 1436 1437 1437 1436 1436 1434
1396 1397 1399 1401 1402 1403 1405 1406 1406 1407 1408 1408 1408 1408 1408 1409 1409 1409 1410 1411 1412 1413 1414 1414 1415 1416 1418 1419 1420 1421 1422 1424 1426 1427 1428 1429 1430 1430 1430 1430 1429 1428 1426
1395 1397 1398 1399 1400 1400 1401 1401 1401 1402 1402 1402 1402 1402 1402 1403 1403 1403 1403 1404 1405 1406 1406 1407 1408 1409 1410 1411 1413 1414 1415 1416 1418 1419 1420 1422 1423 1423 1423 1422 1421 1420 1417
1395 1395 1396 1396 1396 1396 1396 1397 1397 1396 1396 1396 1396 1396 1396 1396 1397 1397 1398 1398 1399 1400 1401 1401 1402 1403 1404 1405 1406 1407 1408 1410 1411 1413 1414 1415 1416 1415 1415 1414 1413 1410 1408